Location: Worth Mountain WMA
(34.9569°N, 81.4819°W)
Time: 00:47:51
(UTC-04:00)

Cosmos 1741 Rocket - Pass Details

Date: 18 August 2017
Orbit: 761 x 783 km, 74.0° (Epoch: 23 September)

Event Time Altitude Azimuth Distance (km) Brightness Sun altitude
Rises 21:59:26 0° 343° (NNW) 3,236 8.0 -21.1°
Reaches altitude 10° 22:01:48 10° 345° (NNW) 2,309 7.1 -21.5°
Maximum altitude 22:07:04 81° 73° (ENE) 783 3.9 -22.4°
Enters shadow 22:08:20 53° 150° (SSE) 944 4.1 -22.6°
